Miscellaneous Local Product
Issued by NWS North Platte, NE

Home | Current Version | Previous Version | Graphics & Text | Print | Product List | Glossary Off
Versions: 1 2 3 4 5 6 7 8 9 10 11 12 13 14 15 16 17 18 19 20 21 22 23 24 25 26 27 28 29 30 31 32 33 34 35 36 37 38 39 40 41 42 43 44 45 46 47 48 49 50

987
AXUS43 KLBF 062110
MISLBF


WESTERN AND NORTH CENTRAL NEBRASKA HOURLY WEATHER ROUNDUP
NATIONAL WEATHER SERVICE NORTH PLATTE NE
400 PM CDT FRI MAY 06 2016

NOTE: "FAIR" INDICATES FEW OR NO CLOUDS BELOW 12,000 FEET WITH NO
SIGNIFICANT WEATHER AND/OR OBSTRUCTIONS TO VISIBILITY.

NOTE: STATIONS NOT REPORTING VARIABLES SUCH AS SKY/WEATHER OR
PRESSURE ARE PROVIDED BY RAWS AND APRS NETWORKS AND ARE NOT UNDER
NATIONAL WEATHER SERVICE QUALITY CONTROL.

...OBSERVATIONS IN AND NEAR THE EASTERN PANHANDLE OF NEBRASKA...

CITY           SKY/WX    TMP DP  RH WIND       PRES   REMARKS
PINE RIDGE     MOSUNNY   78  49  35 N13       29.91F
CHADRON        PTSUNNY   80  51  36 NE20G25   29.91S
ALLIANCE       MOSUNNY   82  47  29 SE14      29.91F
SIDNEY         SUNNY     82  46  28 SE17G23   29.91F
CRESCENT LAKE    N/A     81  45  27 SE9G16      N/A
BIG SPRINGS      N/A     82  48  30 SE16        N/A
$$

...OBSERVATIONS IN NORTHERN NEBRASKA AND FAR SOUTHERN SOUTH DAKOTA...

CITY           SKY/WX    TMP DP  RH WIND       PRES   REMARKS
WINNER         FAIR      88  51  28 SW13G22   29.83F
VALENTINE      CLOUDY    88  39  17 SW12      29.86F
THEDFORD       CLOUDY    86  46  24 S18       29.90F
AINSWORTH      MOSUNNY   85  46  25 S15       29.87F
O`NEILL        SUNNY     84  49  29 S13G20    29.88F
ORD            MOSUNNY    2  32 100 S18G25    29.88F WCI -19
BROKEN BOW     CLOUDY    83  52  34 S17G28    29.90F
BUTTE            N/A     87  49  26 SW14G23     N/A
CHAMBERS         N/A     85  53  33 S7G18       N/A
EWING            N/A     86  48  26 SW15G24     N/A
$$

...OBSERVATIONS IN SOUTHWEST NEBRASKA AND FAR NORTHEAST COLORADO...

CITY           SKY/WX    TMP DP  RH WIND       PRES   REMARKS
HOLYOKE        FAIR      86  45  23 SE8       29.88F
IMPERIAL       SUNNY     85  47  26 SE17      29.87F
OGALLALA       SUNNY     82  45  27 SE13      29.88F
NORTH PLATTE   MOSUNNY   81  51  35 SE13      29.89F
MCCOOK         SUNNY     83  51  33 S14       29.88F
LEXINGTON      CLOUDY    79  53  40 S15       29.90F
PAXTON           N/A     82  51  33 SE18        N/A
STAPLETON        N/A     82  50  32 S3G12       N/A
GOTHENBURG       N/A     79  47  32 S12         N/A
CALLAWAY         N/A     81  48  31 S22         N/A
$$

...OBSERVATIONS IN CENTRAL LINCOLN COUNTY AREA...

CITY           SKY/WX    TMP DP  RH WIND       PRES   REMARKS
N.P. AIRPORT   MOSUNNY   81  51  35 SE13      29.89F
N.P. DOWNTOWN    N/A     83  49  30 SE6G16      N/A
N.P. SOUTHEAST   N/A     83  51  32 SE9         N/A
N.P. HILLCREST   N/A     81  50  33 SE12        N/A
$$

...SOME OBSERVATIONS FROM AROUND THE REGION...

CITY           SKY/WX    TMP DP  RH WIND       PRES   REMARKS
DENVER         PTSUNNY   74  35  24 E6        29.90F THUNDER
LARAMIE        CLOUDY    62  39  42 W12       30.04R
CHEYENNE       CLOUDY    73  43  33 S16       29.97F
SCOTTSBLUFF    CLOUDY    78  45  30 E17       29.89F
RAPID CITY     CLOUDY    74  50  42 N24       29.99R
BISMARCK       CLOUDY    75  47  36 N21       29.98R
PIERRE         CLOUDY    82  54  37 N21       29.83S
SIOUX FALLS    PTSUNNY   86  50  28 W14G21    29.81F
OMAHA          PTSUNNY   88  42  20 SW12      29.89F
GRAND ISLAND   SUNNY     83  49  30 S21G26    29.91F
KANSAS CITY    MOSUNNY   81  51  35 SW12      29.99F
WICHITA        MOSUNNY   83  47  28 S17       30.00F
OKLAHOMA CITY  PTSUNNY   81  49  32 S12       30.04F
DALLAS         MOSUNNY   84  49  29 E8        30.03F
AMARILLO       SUNNY     84  40  21 SE23G35   30.00F
DODGE CITY     SUNNY     81  49  32 S21G28    29.97F
HAYS           SUNNY     84  52  32 S24       29.92F
GOODLAND       CLOUDY    86  37  17 S22       29.90F
$$




USA.gov is the U.S. government's official web portal to all federal, state and local government web resources and services.